This is the latest recevied weather packets stored in our database for station/object K6POO-1. If no packets are shown the sender has not sent any weather packets the latest 10 day(s).
| Time | Temp. | Humidity | Pressure | Rain* | Wind** | Luminosity | Snow |
|---|---|---|---|---|---|---|---|
| 1788144874 | 60° F | 77% | 759.1 mmHg | 0 in | - | 1 W/m² | - |
| 1788144570 | 60° F | 77% | 759.2 mmHg | 0 in | - | 2 W/m² | - |
| 1788144270 | 60° F | 76% | 759 mmHg | 0 in | - | 3 W/m² | - |
| 1788143966 | 60° F | 76% | 759.1 mmHg | 0 in | - | 6 W/m² | - |
| 1788143663 | 60° F | 75% | 759.1 mmHg | 0 in | - | 9 W/m² | - |
| 1788143359 | 61° F | 74% | 759.2 mmHg | 0 in | - | 13 W/m² | - |
| 1788143058 | 61° F | 74% | 759 mmHg | 0 in | - | 16 W/m² | - |
| 1788142758 | 62° F | 73% | 759 mmHg | 0 in | - | 20 W/m² | - |
| 1788142458 | 62° F | 73% | 759.1 mmHg | 0 in | - | 24 W/m² | - |
| 1788142154 | 62° F | 73% | 758.9 mmHg | 0 in | - | 27 W/m² | - |
| 1788141853 | 62° F | 73% | 758.9 mmHg | 0 in | - | 30 W/m² | - |
| 1788141548 | 62° F | 72% | 758.9 mmHg | 0 in | - | 33 W/m² | - |
| 1788141244 | 62° F | 71% | 759.1 mmHg | 0 in | - | 35 W/m² | - |
| 1788140938 | 63° F | 70% | 759.1 mmHg | 0 in | - | 38 W/m² | - |
| 1788140633 | 64° F | 69% | 759 mmHg | 0 in | - | 40 W/m² | - |
| 1788140329 | 65° F | 67% | 759.1 mmHg | 0 in | - | 42 W/m² | - |
| 1788140024 | 65° F | 68% | 759.1 mmHg | 0 in | - | 50 W/m² | - |
| 1788139718 | 65° F | 69% | 759.1 mmHg | 0 in | - | 53 W/m² | - |
| 1788139414 | 64° F | 72% | 759 mmHg | 0 in | - | 57 W/m² | - |
| 1788139113 | 62° F | 73% | 759 mmHg | 0 in | - | 70 W/m² | - |
| 1788138808 | 61° F | 76% | 759.1 mmHg | 0 in | - | 78 W/m² | - |
| 1788138504 | 61° F | 78% | 759.2 mmHg | 0 in | - | 93 W/m² | - |
| 1788138204 | 61° F | 76% | 759.1 mmHg | 0 in | - | 107 W/m² | - |
| 1788137900 | 62° F | 76% | 759.1 mmHg | 0 in | - | 118 W/m² | - |
| 1788137595 | 62° F | 76% | 759.1 mmHg | 0 in | - | 133 W/m² | - |
* Rain latest hour (hover to see other rain measurements)
** Current wind speed in m/s (hover to see current wind gust speed)